SALSAT

Last updated on Wed Sep 17 2025 00:03:09 GMT+0000 (Coordinated Universal Time)

1 46495U 20068K 25259.21038398 .00008514 00000+0 35276-3 0 9994 2 46495 97.8708 241.9403 0011337 168.7954 191.3537 15.24120569273542
UTC large
Height (km)
Speed (km/s)
/
Latitude / Longitude
Inclination (degrees)
Orbital Period (minutes)
Azimuth
Elevation
Range (km)
Doppler Factor

Next 0 passes for location: London (51.5072 / 0.1276)

Sorry there are no passes over London.